Location: Gro�sch�nbrunn
(49.5760°N, 11.8868°E)
Time: 15:32:16
(UTC+00:00)

Cosmos 2263 Rocket - Pass Details

Date: 18 September 2020
Orbit: 822 x 850 km, 71.0° (Epoch: 27 October)

Event Time Altitude Azimuth Distance (km) Brightness Sun altitude
Rises 17:48:03 0° 193° (SSW) 3,344 5.4 -5.6°
Reaches altitude 10° 17:50:30 10° 189° (S) 2,417 4.6 -6.0°
Maximum altitude 17:55:54 57° 112° (ESE) 974 2.2 -6.9°
Drops below altitude 10° 18:01:21 10° 35° (NE) 2,446 4.4 -7.7°
Sets 18:03:50 0° 32° (NNE) 3,387 5.1 -8.1°
